Location: Squamish
(49.7000°N, 123.1500°W)
Time: 18:39:25
(UTC-07:00)

Daily predictions for brighter satellites

Satellite Brightness Start Highest point End
(mag) Time Altitude Azimuth Time Altitude Azimuth Time Altitude Azimuth
Cosmos 407 Rocket 3.9 21:43:05 10° S 21:48:00 42° ESE 21:52:53 10° NE
Cosmos 2263 4.4 21:48:51 10° NNW 21:54:28 78° WSW 22:00:07 10° SSE
Cosmos 1825 Rocket 3.6 21:51:09 10° S 21:55:33 66° E 21:59:56 10° NNE
MetOp-A 4.2 21:55:47 10° SSE 22:01:08 89° WSW 22:06:33 10° NNW
UNK 4.4 21:57:09 10° NNE 22:02:34 61° ESE 22:08:15 10° S
Lacrosse 4 Rocket 1.4 21:58:57 10° SSW 22:02:55 56° ESE 22:06:59 10° NE
ISS -3.4 22:01:28 10° WSW 22:04:45 81° SSE 22:08:02 10° ENE
Cosmos 2084 3.4 22:01:48 10° NW 22:05:53 83° SW 22:10:11 10° SE
Cosmos 1943 Rocket 2.2 22:02:10 10° NNW 22:07:45 80° ENE 22:13:20 10° SSE
Cosmos 1066 Rocket 4.3 22:02:32 10° S 22:08:16 79° E 22:14:10 10° NNE
COSMOS 2406 4.3 22:04:42 10° SSE 22:09:19 26° ESE 22:13:57 10° NE
Cosmos 1656 Rocket 4.3 22:08:41 10° NNW 22:14:14 49° NE 22:19:38 10° SE
H-2A R/B 4.0 22:11:22 10° SSW 22:15:03 27° W 22:18:51 10° NW
CZ-4C R/B 3.8 22:11:59 10° SE 22:15:56 50° ENE 22:19:43 10° N
SeaSat 1 2.8 22:12:51 10° SSE 22:17:44 63° WSW 22:22:40 10° NW
Cosmos 2208 Rocket 4.3 22:14:04 10° NNW 22:19:11 56° ENE 22:23:55 12° SE
Atlas Centaur 2 4.4 22:17:14 10° SW 22:21:17 16° S 22:25:27 10° SSE
Cosmos 1943 3.4 22:18:41 10° SSW 22:24:23 79° WNW 22:30:08 10° NNE
Landsat 7 4.1 22:20:31 11° SSE 22:24:56 57° ENE 22:29:37 10° N
Cosmos 1953 2.6 22:21:20 10° N 22:25:16 52° ENE 22:28:40 13° SSE
Lacrosse 5 rocket 3.3 22:24:21 10° WNW 22:27:55 29° N 22:31:38 10° ENE
CZ-4 R/B 4.0 22:25:41 10° NNE 22:30:40 62° ESE 22:35:39 10° S
CZ-4B R/B 3.5 22:26:05 10° NNE 22:31:13 85° ESE 22:36:27 10° SSW
Cosmos 2221 4.4 22:31:47 10° NNE 22:34:45 18° ENE 22:37:41 10° ESE
Cosmos 1346 Rocket 3.3 22:33:14 10° SSW 22:37:07 60° WNW 22:41:04 10° N
Cosmos-2242 3.0 22:33:25 10° N 22:37:52 86° E 22:41:48 13° S
Cosmos 1842 3.2 22:36:24 10° S 22:40:18 69° E 22:44:13 10° NNE
Terra 2.1 22:36:48 14° SE 22:40:46 57° ENE 22:45:27 10° N
Spot 4 4.3 22:38:04 14° SE 22:41:55 49° ENE 22:46:34 10° N
USA 245 4.5 22:36:58 10° S 22:42:22 56° WSW 22:46:49 10° NNW
NOSS 2 (A) 4.0 22:40:38 10° NW 22:43:00 84° SW 22:44:35 21° SE
Cosmos 1953 Rocket 4.3 22:40:04 10° SSW 22:44:24 55° WNW 22:48:50 10° N
SPOT 5 4.5 22:41:39 10° SSW 22:45:17 26° W 22:48:56 10° NW
ARGOS 3.5 22:41:06 10° S 22:46:29 65° WSW 22:51:55 10° NNW
Nadezhda 4 Rocket 4.3 22:42:56 12° SSE 22:48:37 53° E 22:54:44 10° NNE
Cosmos 1850 Rocket 4.4 22:45:13 12° S 22:49:49 43° ESE 22:54:44 10° NE
Cosmos 1570 Rocket 4.1 22:45:26 10° NNW 22:50:50 81° WSW 22:55:11 16° SSE
Cosmos 1140 Rocket 3.6 22:46:55 10° S 22:52:01 56° ESE 22:57:10 10° NNE
SL-8 R/B 4.3 22:49:13 10° W 22:53:47 42° SSW 22:57:01 18° SE
Lacrosse 5 3.0 22:51:05 10° WNW 22:55:56 43° NNE 23:00:47 10° E
YAOGAN 6 4.4 22:53:36 10° SSW 22:56:52 28° W 23:00:10 10° NW
H-2A R/B 2.0 22:54:58 16° SSE 22:59:00 87° ENE 23:04:11 10° NNW
ATLAS 3B R/B 3.2 22:52:57 10° SW 23:00:39 76° NW 23:08:06 10° NE
Cosmos 2369 Rocket 4.3 22:58:10 10° WNW 23:02:00 19° W 23:05:49 10° SW
Cosmos 676 Rocket 4.5 22:58:26 10° SSW 23:03:44 66° WNW 23:09:03 10° NNE
Cosmos 1544 3.1 23:05:00 10° N 23:08:47 72° E 23:10:59 23° SSE
SAR-Lupe-2 3.8 23:06:53 20° S 23:09:16 67° WSW 23:12:51 10° NNW
Cosmos 1607 4.0 23:03:21 10° SSW 23:09:26 55° ESE 23:15:29 10° NE
Cosmos 614 Rocket 4.2 23:07:38 15° S 23:11:47 53° ESE 23:16:52 10° NNE
Cosmos 1340 3.4 23:10:35 23° SE 23:12:20 37° E 23:15:52 10° NNE
Spot 2 4.5 23:08:26 10° NNE 23:13:16 64° ESE 23:17:10 17° S
NOSS 3-2 (A) 4.2 23:10:04 17° SSE 23:14:00 33° ESE 23:19:50 10° NE
Cosmos 1758 4.1 23:10:04 10° NNW 23:14:03 48° W 23:17:14 15° SSW
USA 234 3.7 23:11:49 18° SSE 23:16:33 48° SW 23:22:53 10° WNW
Cosmos 2369 4.4 23:12:46 10° NNW 23:18:14 46° NE 23:22:37 16° ESE
Cosmos 1932 4.5 23:12:57 10° SW 23:19:10 87° NW 23:25:28 10° NE
CARTOSAT-1 3.9 23:16:15 18° S 23:19:19 60° WSW 23:23:38 10° NNW
SL-27 R/B 3.4 23:18:53 10° SW 23:22:07 45° WNW 23:25:22 10° NNE
Okean 3 Rocket 3.9 23:22:49 24° SSE 23:25:15 51° E 23:29:35 10° NNE
SL-23 DEB 3.8 23:21:17 10° WSW 23:26:23 64° SSE 23:29:45 10° ENE
Cosmos 2026 Rocket 4.5 23:24:08 21° SSE 23:27:52 43° E 23:33:33 10° NNE
Cosmos 1470 2.7 23:24:12 10° N 23:28:07 89° WSW 23:30:11 27° S
Cosmos 1805 4.4 23:24:44 10° NNW 23:28:25 38° W 23:31:13 15° SSW
Meteor 2-5 Rocket 4.0 23:25:22 20° SSE 23:29:19 58° E 23:34:56 10° NNE
Cosmos 1980 Rocket 4.2 23:26:32 10° N 23:30:48 21° NE 23:35:04 10° E
Meteor 1-16 Rocket 4.4 23:27:39 10° N 23:33:17 67° ENE 23:36:58 23° SSE
COSMOS 2487 2.4 23:32:57 25° S 23:34:54 73° ESE 23:38:31 10° NNE
IGS 5A 4.2 23:32:51 20° SSW 23:35:29 47° W 23:39:32 10° NNW
DMSP B5D2-2 4.1 23:30:18 10° NNE 23:35:37 87° WNW 23:39:57 16° SSW
CZ-4C R/B 2.7 23:33:48 22° S 23:36:51 40° ESE 23:42:26 10° NE
Cosmos 405 Rocket 4.3 23:38:03 19° ESE 23:38:57 21° E 23:41:49 10° NE
Cosmos 2278 3.8 23:33:57 10° NNW 23:39:37 70° ENE 23:43:20 22° SE
ISS -2.7 23:38:04 10° W 23:41:19 58° N 23:44:33 10° E
Lacrosse 4 Rocket 3.9 23:38:41 10° W 23:41:59 23° NW 23:45:21 10° NNE
Cosmos 1689 Rocket 4.4 23:40:57 14° E 23:42:18 18° ENE 23:44:37 10° NNE
CZ-4B R/B 3.3 23:45:06 18° ESE 23:46:51 25° ENE 23:49:56 10° N
USA 238 DEB 3.9 23:41:23 10° SW 23:48:31 81° NW 23:55:37 10° NE
USA 238 3.9 23:41:29 10° SW 23:48:36 81° NW 23:55:42 10° NE
ALOS 2 3.7 23:46:57 20° ESE 23:49:22 34° ENE 23:53:21 10° N
Cosmos 1697 Rocket 3.9 23:44:45 10° NNW 23:50:00 36° NE 23:54:45 12° ESE
Cosmos 1943 Rocket 4.1 23:47:04 10° WNW 23:50:50 19° W 23:54:36 10° SW
Cosmos 1818 3.6 23:47:09 10° NW 23:52:39 74° SW 23:55:44 26° SSE
COSMOS 2406 3.7 23:47:33 10° SW 23:53:13 62° WNW 23:58:57 10° NNE
H-2A R/B 3.7 23:51:01 10° NE 23:54:07 23° E 23:54:55 21° ESE
